DW9498 Weather Reports


Display with metric or nautical units.
time (UTC)temp
F
wind
direction
speed
MPH
gust
MPH
rain 1hr
in
rain 24hr
in
rain mn
in
humidity
%
barometer
mb
20260507090343 48 169 1.0 5.0 0.00 0.00 0.00 69 1013.0
20260507085334 48 188 1.0 4.0 0.00 0.00 0.00 68 1013.1
20260507084340 48 211 2.0 5.0 0.00 0.00 0.00 68 1013.2
20260507083350 48 99 2.0 5.0 0.00 0.00 0.00 67 1013.3
20260507082330 48 134 2.0 5.0 0.00 0.00 0.00 66 1013.4
20260507081334 48 166 1.0 5.0 0.00 0.00 0.00 65 1013.5
20260507080323 48 170 1.0 4.0 0.00 0.00 0.00 64 1013.7
20260507075337 48 205 2.0 5.0 0.00 0.00 0.00 63 1013.8
20260507074404 48 244 1.0 5.0 0.00 0.00 0.00 63 1013.8
20260507073330 47 165 0.0 2.0 0.00 0.00 0.00 61 1013.9
20260507072323 47 150 0.0 2.0 0.00 0.00 0.00 60 1014.1
20260507071400 47 229 1.0 3.0 0.00 0.00 0.00 59 1014.1
20260507070325 47 138 0.0 2.0 0.00 0.00 0.00 58 1014.2
20260507065335 47 189 0.0 2.0 0.00 0.00 0.00 57 1014.4
20260507064341 47 178 0.0 1.0 0.00 0.00 0.00 55 1014.6
20260507063350 47 216 0.0 2.0 0.00 0.00 0.00 53 1014.6
20260507062333 46 160 0.0 1.0 0.00 0.00 0.00 53 1014.7
20260507061336 46 161 0.0 0.0 0.00 0.00 0.00 52 1014.8
20260507060347 46 161 0.0 0.0 0.00 0.00 0.00 51 1014.9
20260507055332 47 161 0.0 0.0 0.00 0.00 0.00 50 1014.9
20260507054337 47 161 0.0 0.0 0.00 0.00 0.00 47 1014.9
20260507053349 48 161 0.0 0.0 0.00 0.00 0.00 46 1014.9
20260507052336 48 161 0.0 0.0 0.00 0.00 0.00 45 1014.9
20260507051326 48 161 0.0 0.0 0.00 0.00 0.00 45 1015.0
20260507050339 48 161 0.0 0.0 0.00 0.00 0.00 45 1015.0
20260507045344 48 159 0.0 0.0 0.00 0.00 0.00 45 1015.0
20260507044351 47 159 0.0 0.0 0.00 0.00 0.00 47 1015.0
20260507043331 45 159 0.0 0.0 0.00 0.00 0.00 50 1015.1
20260507042328 44 159 0.0 0.0 0.00 0.00 0.00 54 1015.2
20260507041337 45 159 0.0 0.0 0.00 0.00 0.00 56 1015.2
20260507040337 45 159 0.0 0.0 0.00 0.00 0.00 54 1015.3
20260507035326 45 159 0.0 0.0 0.00 0.00 0.00 53 1015.4
20260507034346 46 159 0.0 0.0 0.00 0.00 0.00 51 1015.4
20260507033332 46 159 0.0 0.0 0.00 0.00 0.00 51 1015.5
20260507032324 47 159 0.0 0.0 0.00 0.00 0.00 48 1015.5
20260507031332 47 159 0.0 0.0 0.00 0.00 0.00 47 1015.5
20260507030322 47 159 0.0 0.0 0.00 0.00 0.00 48 1015.5
20260507025350 47 311 0.0 0.0 0.00 0.00 0.00 49 1015.5
20260507024333 48 311 0.0 0.0 0.00 0.00 0.00 47 1015.4
20260507023401 48 311 0.0 0.0 0.00 0.00 0.00 47 1015.3
20260507022324 49 311 0.0 0.0 0.00 0.00 0.00 44 1015.3
20260507021347 50 311 0.0 0.0 0.00 0.00 0.00 43 1015.2
20260507020329 51 311 0.0 0.0 0.00 0.00 0.00 42 1015.2
20260507015342 52 311 0.0 0.0 0.00 0.00 0.00 40 1015.2
20260507014347 53 311 0.0 0.0 0.00 0.00 0.00 37 1015.2
20260507013329 54 311 0.0 0.0 0.00 0.00 0.00 37 1015.1
20260507012339 56 311 0.0 0.0 0.00 0.00 0.00 34 1015.0
20260507011344 57 349 0.0 0.0 0.00 0.00 0.00 32 1015.1
20260507010355 57 349 0.0 1.0 0.00 0.00 0.00 30 1015.1
20260507005331 58 125 0.0 2.0 0.00 0.00 0.00 29 1015.1
20260507004340 58 351 0.0 3.0 0.00 0.00 0.00 29 1015.1
20260507003332 58 193 1.0 3.0 0.00 0.00 0.00 27 1015.2
20260507002324 59 349 2.0 4.0 0.00 0.00 0.00 28 1015.2
20260507001328 60 7 1.0 6.0 0.00 0.00 0.00 28 1015.3
20260507000336 60 142 2.0 5.0 0.00 0.00 0.00 26 1015.4
20260506235327 60 264 2.0 7.0 0.00 0.00 0.00 27 1015.4
20260506234404 61 225 0.0 8.0 0.00 0.00 0.00 26 1015.6
20260506233334 62 124 1.0 8.0 0.00 0.00 0.00 25 1015.7
20260506232324 63 126 0.0 5.0 0.00 0.00 0.00 25 1015.6
20260506231329 63 175 2.0 6.0 0.00 0.00 0.00 23 1015.7
20260506230337 63 18 0.0 4.0 0.00 0.00 0.00 26 1015.9
20260506225330 62 235 2.0 7.0 0.00 0.00 0.00 26 1015.8
20260506224336 61 340 1.0 7.0 0.00 0.00 0.00 27 1016.0
20260506223328 62 240 1.0 4.0 0.00 0.00 0.00 26 1016.0
20260506222335 61 22 1.0 5.0 0.00 0.00 0.00 27 1016.1
20260506221337 60 16 3.0 10.0 0.00 0.00 0.00 28 1016.2
20260506220329 60 282 3.0 12.0 0.00 0.00 0.00 27 1016.4
20260506215342 60 331 2.0 10.0 0.00 0.00 0.00 28 1016.4
20260506214326 61 133 2.0 10.0 0.00 0.00 0.00 27 1016.5
20260506213335 61 157 2.0 6.0 0.00 0.00 0.00 27 1016.6
20260506212346 60 307 2.0 6.0 0.00 0.00 0.00 27 1016.8
20260506211334 62 344 3.0 7.0 0.00 0.00 0.00 26 1016.9
20260506210325 61 6 1.0 6.0 0.00 0.00 0.00 27 1017.0
20260506205337 60 169 1.0 11.0 0.00 0.00 0.00 29 1017.1
20260506204342 61 351 4.0 10.0 0.00 0.00 0.00 27 1017.2
20260506203351 61 166 2.0 6.0 0.00 0.00 0.00 28 1017.4
20260506202331 60 171 1.0 6.0 0.00 0.00 0.00 29 1017.5
20260506201333 59 330 4.0 8.0 0.00 0.00 0.00 32 1017.5
20260506200324 59 311 5.0 10.0 0.00 0.00 0.00 29 1017.7
20260506195338 60 17 4.0 11.0 0.00 0.00 0.00 27 1017.9
20260506194412 58 37 1.0 11.0 0.00 0.00 0.00 34 1017.9
20260506193327 59 346 5.0 8.0 0.00 0.00 0.00 29 1017.9
20260506192412 59 41 4.0 10.0 0.00 0.00 0.00 32 1018.0
20260506191344 60 256 3.0 13.0 0.00 0.00 0.00 30 1017.9
20260506190333 59 95 3.0 10.0 0.00 0.00 0.00 29 1017.9
20260506185326 57 162 3.0 7.0 0.00 0.00 0.00 31 1018.1
20260506184400 57 43 3.0 7.0 0.00 0.00 0.00 33 1018.3
20260506183352 58 2 5.0 10.0 0.00 0.00 0.00 33 1018.3
20260506182331 57 323 4.0 12.0 0.00 0.00 0.00 33 1018.5
20260506181405 58 243 2.0 7.0 0.00 0.00 0.00 33 1018.6
20260506180346 57 221 3.0 10.0 0.00 0.00 0.00 33 1018.6
20260506175328 56 148 3.0 10.0 0.00 0.00 0.00 34 1018.8
20260506174355 55 315 2.0 11.0 0.00 0.00 0.00 35 1018.9
20260506173400 55 351 3.0 8.0 0.00 0.00 0.00 34 1019.0
20260506172330 56 15 2.0 10.0 0.00 0.00 0.00 35 1019.0
20260506171348 55 17 3.0 6.0 0.00 0.00 0.00 35 1019.3
20260506170327 55 330 4.0 12.0 0.00 0.00 0.00 35 1019.5
20260506165356 55 145 1.0 6.0 0.00 0.00 0.00 36 1019.4
20260506164336 54 358 2.0 8.0 0.00 0.00 0.00 40 1019.5
20260506163347 53 163 1.0 6.0 0.00 0.00 0.00 37 1019.6
20260506162338 53 13 1.0 7.0 0.00 0.00 0.00 37 1019.6
20260506161326 54 30 4.0 8.0 0.00 0.00 0.00 37 1019.5
20260506160357 53 347 2.0 8.0 0.00 0.00 0.00 41 1019.5
20260506155348 53 2 2.0 5.0 0.00 0.00 0.00 39 1019.4
20260506154348 52 338 2.0 6.0 0.00 0.00 0.00 41 1019.3
20260506153329 52 39 1.0 5.0 0.00 0.00 0.00 42 1019.4
20260506152337 52 358 2.0 4.0 0.00 0.00 0.00 42 1019.4
20260506151338 51 347 2.0 6.0 0.00 0.00 0.00 42 1019.4
20260506150328 51 339 3.0 6.0 0.00 0.00 0.00 42 1019.4
20260506145325 50 329 2.0 6.0 0.00 0.00 0.00 43 1019.4
20260506144332 50 20 1.0 4.0 0.00 0.00 0.00 45 1019.5
20260506143357 49 149 1.0 4.0 0.00 0.00 0.00 45 1019.4
20260506142329 49 17 1.0 4.0 0.00 0.00 0.00 45 1019.4
20260506141335 48 351 1.0 3.0 0.00 0.00 0.00 50 1019.3
20260506140325 47 21 0.0 3.0 0.00 0.00 0.00 48 1019.3
20260506135335 47 19 2.0 5.0 0.00 0.00 0.00 47 1019.3
20260506134332 46 22 3.0 5.0 0.00 0.00 0.00 48 1019.2
20260506133322 46 327 0.0 3.0 0.00 0.00 0.00 52 1019.1
20260506132333 45 17 2.0 5.0 0.00 0.00 0.00 51 1019.0
20260506131339 44 3 1.0 2.0 0.00 0.00 0.00 53 1018.8
20260506130349 43 355 0.0 2.0 0.00 0.00 0.00 56 1018.6
20260506125326 42 347 1.0 2.0 0.00 0.00 0.00 59 1018.7
20260506124348 40 276 0.0 1.0 0.00 0.00 0.00 63 1018.6
20260506123335 39 257 0.0 1.0 0.00 0.00 0.00 65 1018.3
20260506122323 38 5 0.0 0.0 0.00 0.00 0.00 68 1018.2
20260506121325 36 5 0.0 0.0 0.00 0.00 0.00 70 1018.0
20260506120333 36 5 0.0 0.0 0.00 0.00 0.00 71 1017.9
20260506115346 36 5 0.0 0.0 0.00 0.00 0.00 69 1017.7
20260506114333 36 5 0.0 0.0 0.00 0.00 0.00 69 1017.5
20260506113323 36 5 0.0 0.0 0.00 0.00 0.00 68 1017.5
20260506112352 37 5 0.0 0.0 0.00 0.00 0.00 67 1017.4
20260506111332 37 5 0.0 0.0 0.00 0.00 0.00 66 1017.4
20260506110322 38 5 0.0 0.0 0.00 0.00 0.00 65 1017.3
20260506105334 38 5 0.0 0.0 0.00 0.00 0.00 64 1017.4
20260506104357 39 5 0.0 0.0 0.00 0.00 0.00 62 1017.4
20260506103346 39 5 0.0 0.0 0.00 0.00 0.00 62 1017.2
20260506102330 39 5 0.0 0.0 0.00 0.00 0.00 61 1017.2
20260506101336 40 5 0.0 0.0 0.00 0.00 0.00 60 1017.1
20260506100346 40 5 0.0 0.0 0.00 0.00 0.00 60 1017.0
20260506095339 41 5 0.0 0.0 0.00 0.00 0.00 59 1017.0
20260506094344 42 5 0.0 0.0 0.00 0.00 0.00 57 1016.9
20260506093322 42 5 0.0 0.0 0.00 0.00 0.00 56 1016.8
20260506092336 43 5 0.0 0.0 0.00 0.00 0.00 54 1016.7
20260506091345 44 5 0.0 0.0 0.00 0.00 0.00 54 1016.5